www.pogodaiklimat.ru

Погода и климат >> Архив погоды >> Россия >> Ямало-Ненецкий АО >> Салехард


АРХИВ ПОГОДЫ в Салехарде

Время (UTC), дата Ветер
(напр.,м/с)
 
Видим.   Явления Облачность Т
(С)
Тd
(С)
f
(%)
Тe
(С)
Тes
(С)
Комфортность P
(гПа)
Po
(гПа)
Тmin
(С)
Tmax
(С)
R
(мм)
R24
(мм)
S
(см)
21 12.09 ЮВ 3 10 км 10/6 1230 м
[Sc Ac trans]
+2.4 -1.9 73 -2 -2 прохладно 1009.7 1007.6
00 13.09 ЮВ 3 10 км 10/10 420 м
[St]
+2.7 -0.9 77 -1 -1 по сезону 1005.7 1003.7
03 13.09 ЮВ 5
{10}
20 км {дождь} 10/10 840 м
[Frnb]
+3.6 -0.1 77 -1 -1 прохладно 1000.4 998.4 +1.8 0.0
06 13.09 ЮВ 6-11
{11}
10 км слабый дождь 10/8 400 м
[Frnb Ac As]
+5.0 +3.2 88 -0 -0 прохладно 994.6 992.6
09 13.09 ЮВ 6-11
{13}
10 км слабый дождь 10/8 240 м
[Frnb Ac As]
+6.8 +5.4 91 +2 +2 прохладно 989.9 987.9
12 13.09 ЮВ 4
{13}
10 км слабый дождь 10/8 240 м
[Frnb Ac As]
+8.1 +6.8 91 +5 +5 по сезону 986.7 984.7
15 13.09 ЮВ 2 4000 м слабый дождь 10/8 180 м
[Frnb Ac As]
+8.7 +7.6 93 +7 +7 по сезону 985.2 983.3 +8.7 13
18 13.09 СВ 1 2000 м слабый дождь 10/8 180 м
[Frnb Ac As]
+8.4 +7.5 94 +8 +8 тепло 983.7 981.8
21 13.09 СВ 3 2000 м слабый дождь 10/8 90 м
[St As trans]
+6.7 +5.8 94 +3 +3 по сезону 983.7 981.8
00 14.09 СВ 4 4000 м слабая морось {дождь} 10/8 150 м
[St As trans]
+6.0 +5.2 95 +2 +2 по сезону 984.0 982.0
03 14.09 СВ 4 20 км {морось} 10/8 600 м
[Sc diur, vesp Ac trans]
+5.8 +4.8 93 +2 +2 по сезону 985.2 983.2 +5.5 2
06 14.09 СВ 4
{10}
10 км слабая морось 10/8 180 м
[St As op]
+6.6 +4.7 88 +3 +3 по сезону 987.2 985.3
09 14.09 СВ 4 10 км слабый дождь {морось} 10/8 360 м
[Frnb As op]
+7.2 +5.2 87 +4 +4 по сезону 990.0 988.1
12 14.09 С 3 10 км слабый дождь {морось} 10/8 400 м
[Frnb As op]
+6.8 +5.0 88 +4 +4 по сезону 993.2 991.3
15 14.09 СВ 4 10 км слабый ливневой дождь 10/4 600 м
[Cu Sc Ac As]
+6.0 +4.1 88 +2 +2 по сезону 995.8 993.8 +7.4 3
18 14.09 С 3 10 км {ливн. осадки, дождь} 10/6 800 м
[Frnb Ac trans]
+5.6 +3.4 86 +2 +2 по сезону 998.2 996.2
21 14.09 С 1 10 км 10/5 1080 м
[Sc Ac trans]
+5.6 +3.2 85 +4 +4 по сезону 1000.6 998.6
00 15.09 С 3 4000 м слабая морось 10/8 480 м
[St Ac trans]
+5.6 +3.3 85 +2 +2 по сезону 1002.9 1000.9
03 15.09 С 4
{10}
10 км слабый дождь {морось} 10/8 270 м
[Frnb Ac trans]
+5.1 +3.6 90 +1 +1 по сезону 1005.7 1003.6 +5.1 0.7
06 15.09 С 4
{10}
20 км в посл. час морось {дождь} 10/8 1110 м
[Cb calv Ac trans]
+6.0 +3.4 83 +2 +2 по сезону 1008.0 1006.0
09 15.09 С 4 20 км 10/8 960 м
[Sc diur, vesp Ac trans]
+7.0 +3.2 77 +4 +4 по сезону 1010.7 1008.7
12 15.09 С 2 20 км 10/10 1020 м
[Sc]
+6.7 +3.1 78 +5 +5 по сезону 1013.0 1011.0
15 15.09 С 2 10 км {ливн. осадки} 10/8 870 м
[Sc diur, vesp Ac trans]
+5.9 +2.8 80 +4 +4 по сезону 1014.6 1012.6 +7.4 0.0
18 15.09 С 2 10 км {ливн. осадки} 8/5 600 м
[Sc Ac trans]
+5.4 +2.5 82 +3 +3 по сезону 1015.9 1013.9
21 15.09 СЗ 1 10 км 9/4 600 м
[Sc Ac trans]
+4.8 +2.8 87 +3 +3 по сезону 1016.7 1014.6
00 16.09 СЗ 1 10 км 10/6 1000 м
[Sc Ac trans]
+5.1 +3.7 91 +4 +4 по сезону 1017.4 1015.4
03 16.09 СЗ 1 20 км 10/5 1000 м
[Sc Ac trans]
+5.2 +3.5 89 +4 +4 по сезону 1018.6 1016.5 +4.7
06 16.09 СЗ 1 20 км 9/3 1500 м
[Sc Ac trans]
+9.1 +1.4 59 +9 +10 тепло 1019.3 1017.3
09 16.09 З 2 20 км 10/3 1500 м
[Sc Ac trans]
+9.6 +2.1 59 +8 +9 тепло 1019.8 1017.8
12 16.09 ЮЗ 1 20 км 9/8 1500 м
[Sc Ac trans]
+9.5 +2.8 63 +9 +9 тепло 1020.2 1018.2
15 16.09 Ю 1 10 км 8/3 1500 м
[Sc Ac trans]
+5.5 +3.1 85 +4 +4 по сезону 1020.6 1018.6 +10.8
18 16.09 Ю 1 10 км 6/3 1000 м
[Sc diur, vesp Ac trans]
+5.4 +3.2 86 +4 +4 по сезону 1021.0 1019.0
21 16.09 Ю 1 10 км местами туман поземный 5/0
[Ac trans]
-0.9 -1.7 94 -3 -3 прохладно 1021.0 1018.9
00 17.09 В 1 10 км 6/0
[Ac trans Ci fib]
-2.7 -3.3 96 -5 -5 холодно 1020.2 1018.1
03 17.09 Ю 3 20 км 10/6 1500 м
[Sc diur, vesp Ac trans]
+3.7 +2.4 91 -0 -0 по сезону 1019.9 1017.9 -2.8
06 17.09 Ю 3 20 км 10/8 1410 м
[Sc diur, vesp Ac trans]
+7.1 +3.5 78 +4 +4 по сезону 1018.9 1016.9
09 17.09 Ю 2 20 км 10/8 1350 м
[Sc diur, vesp Ac trans]
+10.0 +5.1 72 +9 +9 тепло 1017.5 1015.5
12 17.09 Ю 4 20 км {ливн. осадки} 10/8 300 м
[Cb calv Ac trans]
+10.7 +4.2 64 +8 +8 по сезону 1015.3 1013.3
15 17.09 Ю 3 4000 м слабый дождь 10/6 500 м
[Frnb Ac As]
+8.1 +5.1 81 +5 +5 по сезону 1013.5 1011.5 +10.9 0.5
18 17.09 Ю 5
{10}
4000 м слабый дождь 10/8 400 м
[Frnb Ac As]
+8.0 +5.6 85 +4 +4 по сезону 1011.0 1009.0
21 17.09 Ю 4
{11}
4000 м слабый дождь 10/4 300 м
[Frnb Ac As]
+8.6 +5.6 81 +6 +6 тепло 1007.2 1005.2
00 18.09 ЮВ 4
{11}
10 км {дождь} 10/6 1500 м
[Sc Ac trans]
+8.1 +5.1 81 +5 +5 тепло 1003.5 1001.5
03 18.09 Ю 5-11
{13}
10 км слабый дождь 10/10 450 м
[Frnb]
+7.6 +5.8 88 +4 +4 по сезону 999.2 997.2 +7.4 4
06 18.09 Ю 4
{13}
10 км слабый дождь {морось} 10/8 210 м
[Frnb Ac trans]
+8.9 +7.7 92 +6 +6 по сезону 997.5 995.5
09 18.09 З 4
{14}
20 км {дождь} 8/3 1110 м
[Sc Ac trans]
+11.1 +6.0 71 +9 +10 тепло 1003.0 1001.0
12 18.09 З 5-11
{14}
20 км {дождь} 5/3 1000 м
[Sc Ac trans]
+11.6 +3.1 56 +9 +10 тепло 1005.4 1003.4
15 18.09 ЮЗ 2
{11}
10 км 10/3 1000 м
[Sc Ac trans Ci fib]
+8.2 +3.3 71 +6 +6 по сезону 1007.8 1005.8 +12.3 5
18 18.09 Ю 2 10 км 8/3 1000 м
[Sc Ac trans Ci fib]
+6.8 +3.7 81 +5 +5 тепло 1008.7 1006.7
21 18.09 штиль 0 10 км 8/0
[Ac trans]
+4.9 +3.0 87 +4 +4 по сезону 1008.8 1006.8
00 19.09 Ю 1 10 км 10/3 1000 м
[Sc diur, vesp Ac trans]
-0.6 -1.3 95 -3 -3 прохладно 1009.2 1007.1
03 19.09 Ю 1 20 км 10/4 1000 м
[Sc diur, vesp Ac trans]
+4.3 +3.3 93 +3 +3 по сезону 1009.3 1007.3 -0.7
06 19.09 В 2 20 км 10/0
[Ac trans Ci sp]
+8.1 +4.1 76 +6 +8 по сезону 1008.0 1006.0
09 19.09 СВ 2 10 км слабый ливневой дождь 10/5 600 м
[Cu hum Ac As]
+9.3 +6.8 84 +8 +8 тепло 1006.4 1004.4
12 19.09 С 1 4000 м слабая морось {ливн. осадки, дождь} 10/8 180 м
[St As op]
+8.2 +7.0 92 +7 +7 по сезону 1005.4 1003.4
15 19.09 Ю 2 10 км в посл. час морось 10/10 150 м
[St]
+9.2 +8.3 94 +7 +7 тепло 1005.3 1003.3 +10.0 2

 

Местоположение метеостанции Салехард (Ямало-Ненецкий АО, Россия): широта 66.53 долгота 66.67 высота над уровнем моря 16 м.

В архиве по умолчанию представлена погода в Салехарде за последнюю неделю. Архивные данные за месяц целиком и за предыдущие месяцы, начиная с января 2011 года, Вы можете получить, выбрав интересующий диапазон дат из раскрывающегося списка и нажав кнопку "Ввод!".


*Определитесь, кто Вы:
робот инопланетянин человек

Внимание! Время в таблицах - всемирное. Для получения местного времени необходимо прибавить поправку, которая в Салехарде равна 5 ч.

Смотрите также архив погоды в соседних городах и на ближайших метеорологических станциях:

Погода в Харпе (Ямало-Ненецкий АО, Россия) (49 км)
Погода в Белоярске (Ямало-Ненецкий АО, Россия) (75 км)
Погода в Питляре (Ямало-Ненецкий АО, Россия) (85 км)
Погода в Полуе (Ямало-Ненецкий АО, Россия) (106 км)
Погода в Елецкой (Коми, Россия) (128 км)
Погода в Мужах (Ямало-Ненецкий АО, Россия) (155 км)
Погода в Воркуте (Коми, Россия) (158 км)
Погода в Петруни (Коми, Россия) (262 км)
Погода в Ныде (Ямало-Ненецкий АО, Россия) (277 км)
Погода в Лонг-Югане (Ямало-Ненецкий АО, Россия) (277 км)

Пояснения к столбцам:

Ветер - указаны скорость ветра в м/с - средняя за 10 мин, порывы в срок и между сроками (в фигурных скобках) и направление, откуда дует ветер: С - северный, СВ - северо-восточный, В - восточный, ЮВ - юго-восточный, Ю - южный, ЮЗ - юго-западный, З - западный, СЗ - северо-западный.
Видимость - горизонтальная дальность видимости в метрах или километрах. При видимости от 1 до 10 км при отсутствии осадков обычно наблюдается дымка, при ухудшении видимости до 1 км и менее - туман. В сухую погоду видимость может ухудшаться дымом, пылью или мглою.
Явления - указаны атмосферные явления, наблюдавшиеся в срок или в последний час перед сроком; фигурными скобками обозначены явления, наблюдавшиеся между сроками (за 1-3 часа до срока); квадратными скобками обозначены град или гололедные отложения с указанием их диаметра в мм.
Облачность - указаны через наклонную черту общая и нижняя облачность в баллах и высота нижней границы облаков в метрах; квадратными скобками обозначены формы облаков: Ci - перистые, Cs - перисто-слоистые, Cc - перисто-кучевые, Ac - высококучевые, As - высокослоистые, Sc - слоисто-кучевые, Ns - слоисто-дождевые, Cu - кучевые, Cb - кучево-дождевые. Подробнее классификацию облаков см. в Атласе облаков (PDF).
T - Температура воздуха - температура, измеренная на высоте 2 м над землей.
Td - Температура точки росы - температура, при понижении до которой содержащийся в воздухе водяной пар достигнет насыщения.
f - Относительная влажность воздуха - влажноcть воздуха, измеренная на высоте 2 м над землей.
Te - Эффективная температура - температура, которую ощущает одетый по сезону человек в тени. Характеристика душности погоды. При расчете учитывается влияние влажности воздуха и скорости ветра на теплоощущения человека.
Tes - Эффективная температура на солнце - температура, которую ощущает человек, с поправкой на солнечный нагрев. Характеристика знойности погоды. Зависит от высоты солнца над горизонтом, облачности и скорости ветра. Ночью, в пасмурную погоду, а также при ветре 12 м/с и более поправка равна нулю.
P - Атмосферное давление - приведенное к уровню моря атмосферное давление.
Po - Атмосферное давление - измеренное на уровне метеостанции атмосферное давление.
Tmin - Минимальная температура - минимум температуры воздуха на высоте 2 м над землей.
Tmax - Максимальная температура - максимум температуры воздуха на высоте 2 м над землей.
R - Количество осадков - Количество выпавших осадков за период времени, мм. При наведении курсора мыши на число - период времени, за который выпало указанное количество осадков.
R24 - Количество осадков - Количество выпавших осадков за 24 часа, мм.
S - Снежный покров - Высота снежного покрова, см. При наведении курсора мыши на число - состояние снежного покрова и степень покрытия местности в баллах.